Regional Weather Roundup
Issued by NWS

Home | Current Version | Previous Version | Graphics & Text | Print | Product List | Glossary On
Versions: 1 2 3 4 5 6 7 8 9 10 11 12 13 14 15 16 17 18 19 20 21 22 23 24 25 26 27 28 29 30 31 32 33 34 35 36 37 38 39 40 41 42 43 44 45 46 47 48 49 50
000
ASUS45 KPSR 252200
RWRAZ

PRELIMINARY ARIZONA REGIONAL HOURLY WEATHER ROUNDUP
NATIONAL WEATHER SERVICE PHOENIX AZ
300 PM MST SUN JAN 25 2015

NOTE: FAIR INDICATES FEW OR NO CLOUDS BELOW 12,000 FEET WITH NO
SIGNIFICANT WEATHER AND/OR OBSTRUCTIONS TO VISIBILITY.

AZZ001>003-036-252300-
NORTHWEST ARIZONA

CITY           SKY/WX    TMP DP  RH WIND       PRES   REMARKS
KINGMAN        SUNNY     66  25  21 N16       30.16F
$$

AZZ004>008-015-016-018-252300-
NORTH CENTRAL ARIZONA

CITY           SKY/WX    TMP DP  RH WIND       PRES   REMARKS
GRAND CANYON   SUNNY     54  22  28 E17       30.32S
PRESCOTT       SUNNY     66  20  17 S6        30.20S
FLAGSTAFF      NOT AVBL
PAYSON         SUNNY     66  18  15 NE13      30.19S
$$

AZZ009>014-017-252300-
NORTHEAST ARIZONA

CITY           SKY/WX    TMP DP  RH WIND       PRES   REMARKS
WINSLOW        NOT AVBL
SAINT JOHNS    SUNNY     53  19  26 NW7       30.26F
WINDOW ROCK    SUNNY     57  24  28 CALM      30.27F
$$

AZZ023-252300-
GREATER PHOENIX AREA

CITY           SKY/WX    TMP DP  RH WIND       PRES   REMARKS
PHOENIX        PTSUNNY   76  23  14 S5        30.01F
GLENDALE       PTSUNNY   73  25  16 CALM      30.03F
LUKE AFB       NOT AVBL
DEER VALLEY    MOSUNNY   73  23  15 S5        30.02F
SCOTTSDALE     MOSUNNY   76  22  13 S3        30.04F
MESA-FALCON    PTSUNNY   75  23  14 SE6       30.02F
MESA-GATEWAY   MOSUNNY   72  25  17 W5        30.05F
$$

AZZ027-028-252300-
SOUTHWEST MARICOPA COUNTY AND PINAL COUNTY

CITY           SKY/WX    TMP DP  RH WIND       PRES   REMARKS
CASA GRANDE    PTSUNNY   73  19  13 E12       30.04S
GILA BEND      FAIR      73  18  12 E12       30.01F
$$

AZZ503-504-507>509-252300-
SOUTHEAST ARIZONA

CITY           SKY/WX    TMP DP  RH WIND       PRES   REMARKS
TUCSON         CLOUDY    71   7   8 E6        30.08S
DAVIS-MONTHAN  PTSUNNY   71   8   8 E6        30.06S
RYAN FIELD       N/A     73  10   9 E12       30.06F
NOGALES        CLOUDY    69  15  12 NW3       30.09F
SIERRA VISTA   CLOUDY    65  12  12 SE9       30.14S
SAFFORD        SUNNY     63  16  16 VRB7      30.15F
$$

AZZ020-021-025-026-031-252300-
SOUTHWEST ARIZONA

CITY           SKY/WX    TMP DP  RH WIND       PRES   REMARKS
YUMA           CLOUDY    75  30  19 NE5       30.02F
$$

CAZ031-033-041-043-047-048-061-252300-
SOUTHERN CALIFORNIA

CITY           SKY/WX    TMP DP  RH WIND       PRES   REMARKS
DOWNTOWN L.A.  SUNNY     82  31  15 CALM      29.94F
L.A. AIRPORT   MOSUNNY   75  29  18 W10       29.95F
SAN DIEGO      CLOUDY    77  19  11 W6        29.96F
BURBANK        SUNNY     78  25  14 S3        29.97F
ONTARIO        PTSUNNY   79  30  16 W12       29.97F
RIVERSIDE      MOSUNNY   80  26  13 CALM      29.98F
PALM SPRINGS   PTSUNNY   82  23  11 CALM      30.03F
EL CENTRO NAS  PTSUNNY   80  25  13 N7        30.01F
IMPERIAL       PTSUNNY   78  28  16 NW5       30.01F
BLYTHE         PTSUNNY   73  35  25 E6        30.02F
$$

NVZ020-UTZ003-252300-
SOUTHERN NEVADA-UTAH

CITY           SKY/WX    TMP DP  RH WIND       PRES   REMARKS
LAS VEGAS      NOT AVBL
SALT LAKE CITY MOSUNNY   51  34  52 VRB6      30.42S
$$

NMZ009-TXZ055-252300-
NEW MEXICO-WEST TEXAS

CITY           SKY/WX    TMP DP  RH WIND       PRES   REMARKS
ALBUQUERQUE    MOSUNNY   53  21  28 CALM      30.25F
EL PASO        MOSUNNY   61  24  24 E6        30.18F
$$


........................KEY........................
SKY/WX - SKY CONDITION/WEATHER
TMP    - TEMPERATURE IN FAHRENHEIT
DP     - DEW POINT IN FAHRENHEIT
RH     - RELATIVE HUMIDITY IN PERCENT
WIND   - DIRECTION AND SPEED IN MILES PER HOUR (MPH)
VRB    - VARIABLE WIND DIRECTION
PRES   - MEAN SEA LEVEL PRESSURE IN INCHES OF MERCURY
         F - FALLING PRESSURE   R - RISING PRESSURE
         S - STEADY PRESSURE
VSB    - VISIBILITY IN MILES
HX     - HEAT INDEX IN FAHRENHEIT
WCI    - WIND CHILL INDEX IN FAHRENHEIT
TC     - TEMPERATURE IN CELSIUS WHICH IS ALSO KNOWN AS
         TEMPERATURE IN CENTIGRADE
AFB    - AIR FORCE BASE
         LUKE AFB IS LUKE AIR FORCE BASE
         DAVIS-MONTHAN IS DAVIS-MONTHAN AIR FORCE BASE
NAS    - NAVAL AIR STATION
         EL CENTRO NAS IS EL CENTRO NAVAL AIR STATION
N/A    - NOT AVAILABLE


USA.gov is the U.S. government's official web portal to all federal, state and local government web resources and services.